Regional Weather Roundup
Issued by NWS Jackson, KY

Home | Current Version | Previous Version | Text Only | Print | Product List | Glossary Off
Versions: 1 2 3 4 5 6 7 8 9 10 11 12 13 14 15 16 17 18 19 20 21 22 23 24 25 26 27 28 29 30 31 32 33 34 35 36 37 38 39 40 41 42 43 44 45 46 47 48 49 50

000
ASUS43 KJKL 220310
RWRJKL

EAST KENTUCKY HOURLY WEATHER ROUNDUP
NATIONAL WEATHER SERVICE JACKSON KY
1100 PM EDT MON JUL 21 2014

NOTE: "FAIR" INDICATES FEW OR NO CLOUDS BELOW 12,000 FEET WITH
NO SIGNIFICANT WEATHER AND/OR OBSTRUCTIONS TO VISIBILITY.

* THESE REPORTS ARE NOT UNDER NWS QUALITY CONTROL AND MAY NOT
  REPORT WEATHER SUCH AS PRECIPITATION AND FOG.

KYZ079-080-083-085-087-088-110-112-115-119-120-220400
...EASTERN KENTUCKY...

CITY           SKY/WX    TMP DP  RH WIND       PRES   REMARKS
JACKSON        PTCLDY    76  68  76 E3        30.13R
LONDON         MOCLDY    78  70  76 CALM      30.11S
SOMERSET*      CLEAR     75  72  88 CALM      30.10S
MONTICELLO*    PTCLDY    71  70  97 CALM      30.11R
WILLIAMSBURG*    N/A     75  73  94 CALM      30.11R
MIDDLESBORO*   CLOUDY    74  71  88 CALM      30.13R
HARLAN APT*    CLOUDY    70  70 100 MISG      30.15S
HAZARD APT*    PTCLDY    73  72  94 CALM      30.12S
BLACK MTN*       N/A     64  64 100 CALM        N/A
PIKEVILLE APT* PTCLDY    77  68  73 CALM      30.14R
BIG SANDY*     PTCLDY    74  71  91 CALM      30.12S
MOREHEAD APT*    N/A     77  70  78 CALM      30.13S
$$

KYZ035-036-041-042-044-050-067-078-099-220400
...CENTRAL KENTUCKY...

CITY           SKY/WX    TMP DP  RH WIND       PRES   REMARKS
MT STERLING*   CLEAR     73  70  88 CALM      30.12S
FLEMING/MASON* CLEAR     75  70  83 E3        30.12S
DANVILLE*      CLEAR     72  68  88 CALM      30.12R
RICHMOND*      CLEAR     75  68  78 CALM      30.10S
LEXINGTON      PTCLDY    77  67  71 NE6       30.11R
FRANKFORT      CLEAR     74  68  81 CALM      30.09R
$$

KYZ091>093-OHZ055-061-077-WVZ005-015-034-035-042-220400
...SOUTHERN OHIO/WEST VIRGINIA...

CITY           SKY/WX    TMP DP  RH WIND       PRES   REMARKS
COVINGTON      CLEAR     76  65  68 CALM      30.11R
COLUMBUS       CLEAR     76  66  71 E7        30.11R
DAYTON         CLEAR     75  64  68 NE3       30.14R
WILMINGTON     CLEAR     71  65  81 CALM      30.13R
HUNTINGTON     CLEAR     73  71  93 CALM      30.10R
CHARLESTON     PTCLDY    74  72  93 CALM      30.11S
PINEVILLE*     CLOUDY    72  70  96 MISG      30.23R
BECKLEY        CLOUDY    71  64  78 SE6       30.22R
BLUEFIELD      MOCLDY    71  63  75 SE6       30.25R
$$

VAZ002-007-008-TNZ017-027-036-066-071-220400
...SOUTHWEST VIRGINIA/EAST TENNESSEE...

CITY           SKY/WX    TMP DP  RH WIND       PRES   REMARKS
WISE*          CLOUDY    72  63  73 S5        30.23S
JONESVILLE*      N/A     75  70  83 CALM      30.17R
ABINGDON*      MOCLDY    73  67  81 CALM      30.20S
BRISTOL        MOCLDY    73  65  75 CALM      30.16S
KNOXVILLE      CLOUDY    76  71  85 W6        30.09R
OAK RIDGE      MOCLDY    79  72  79 CALM      30.11R
CROSSVILLE     MOCLDY    72  69  90 CALM      30.15R
NASHVILLE      PTCLDY    79  70  74 CALM      30.07R
$$

...KEY TO REMARKS...
VSB - VISIBILITY IN MILES
WCI - WIND CHILL INDEX
HX  - HEAT INDEX

$$


USA.gov is the U.S. government's official web portal to all federal, state and local government web resources and services.